| time (UTC) | temp F | wind direction | speed MPH | gust MPH | rain 1hr in | rain 24hr in | rain mn in | humidity % | barometer mb |
| 20260505003232 | 64 | 226 | 1.0 | 5.0 | 0.00 | 0.00 | 0.00 | 48 | 1009.7 |
| 20260505002732 | 65 | 202 | 2.0 | 4.0 | 0.00 | 0.00 | 0.00 | 47 | 1009.6 |
| 20260505002232 | 65 | 197 | 1.0 | 4.0 | 0.00 | 0.00 | 0.00 | 47 | 1009.6 |
| 20260505002042 | 65 | 199 | 3.0 | 4.0 | 0.00 | 0.00 | 0.00 | 47 | 1009.6 |
| 20260505001232 | 65 | 219 | 2.0 | 5.0 | 0.00 | 0.00 | 0.00 | 46 | 1009.5 |
| 20260505000731 | 66 | 206 | 2.0 | 5.0 | 0.00 | 0.00 | 0.00 | 45 | 1009.5 |
| 20260505000233 | 66 | 166 | 2.0 | 6.0 | 0.00 | 0.00 | 0.00 | 46 | 1009.5 |
| 20260504235732 | 66 | 264 | 2.0 | 7.0 | 0.00 | 0.00 | 0.00 | 45 | 1009.4 |
| 20260504235229 | 67 | 212 | 1.0 | 7.0 | 0.00 | 0.00 | 0.00 | 45 | 1009.4 |
| 20260504234729 | 67 | 200 | 2.0 | 9.0 | 0.00 | 0.00 | 0.00 | 46 | 1009.4 |
| 20260504234229 | 67 | 161 | 4.0 | 9.0 | 0.00 | 0.00 | 0.00 | 44 | 1009.4 |
| 20260504233730 | 67 | 227 | 4.0 | 9.0 | 0.00 | 0.00 | 0.00 | 44 | 1009.4 |
| 20260504233204 | 67 | 204 | 4.0 | 9.0 | 0.00 | 0.00 | 0.00 | 43 | 1009.4 |
| 20260504232704 | 68 | 197 | 2.0 | 5.0 | 0.00 | 0.00 | 0.00 | 44 | 1009.5 |
| 20260504232204 | 68 | 214 | 2.0 | 7.0 | 0.00 | 0.00 | 0.00 | 43 | 1009.4 |
| 20260504231705 | 69 | 214 | 3.0 | 10.0 | 0.00 | 0.00 | 0.00 | 41 | 1009.5 |
| 20260504231206 | 69 | 189 | 5.0 | 10.0 | 0.00 | 0.00 | 0.00 | 42 | 1009.4 |
| 20260504230704 | 69 | 240 | 3.0 | 9.0 | 0.00 | 0.00 | 0.00 | 42 | 1009.4 |
| 20260504230157 | 69 | 209 | 3.0 | 10.0 | 0.00 | 0.00 | 0.00 | 43 | 1009.3 |
| 20260504225656 | 69 | 182 | 5.0 | 11.0 | 0.00 | 0.00 | 0.00 | 41 | 1009.4 |
| 20260504225153 | 69 | 197 | 5.0 | 11.0 | 0.00 | 0.00 | 0.00 | 41 | 1009.4 |
| 20260504224655 | 69 | 183 | 2.0 | 10.0 | 0.00 | 0.00 | 0.00 | 41 | 1009.5 |
| 20260504224149 | 69 | 227 | 3.0 | 9.0 | 0.00 | 0.00 | 0.00 | 41 | 1009.4 |
| 20260504223648 | 69 | 179 | 4.0 | 10.0 | 0.00 | 0.00 | 0.00 | 42 | 1009.5 |
| 20260504223149 | 69 | 257 | 6.0 | 11.0 | 0.00 | 0.00 | 0.00 | 40 | 1009.4 |
| 20260504222648 | 70 | 206 | 5.0 | 11.0 | 0.00 | 0.00 | 0.00 | 39 | 1009.5 |
| 20260504222147 | 70 | 272 | 7.0 | 12.0 | 0.00 | 0.00 | 0.00 | 39 | 1009.5 |
| 20260504221646 | 70 | 276 | 7.0 | 12.0 | 0.00 | 0.00 | 0.00 | 39 | 1009.5 |
| 20260504221144 | 70 | 279 | 5.0 | 14.0 | 0.00 | 0.00 | 0.00 | 40 | 1009.6 |
| 20260504220637 | 70 | 172 | 6.0 | 14.0 | 0.00 | 0.00 | 0.00 | 41 | 1009.5 |
| 20260504220135 | 70 | 281 | 6.0 | 10.0 | 0.00 | 0.00 | 0.00 | 39 | 1009.5 |
| 20260504215932 | 70 | 235 | 6.0 | 11.0 | 0.00 | 0.00 | 0.00 | 39 | 1009.5 |
| 20260504215132 | 71 | 247 | 6.0 | 15.0 | 0.00 | 0.00 | 0.00 | 40 | 1009.7 |
| 20260504214631 | 71 | 206 | 7.0 | 15.0 | 0.00 | 0.00 | 0.00 | 40 | 1009.6 |
| 20260504214427 | 71 | 223 | 7.0 | 12.0 | 0.00 | 0.00 | 0.00 | 38 | 1009.6 |
| 20260504213951 | 71 | 252 | 5.0 | 12.0 | 0.00 | 0.00 | 0.00 | 38 | 1009.6 |
| 20260504213132 | 0 | 234 | 7.0 | 10.0 | 0.00 | 0.00 | 0.00 | 1009.6 | |
| 20260504212632 | 0 | 305 | 7.0 | 10.0 | 0.00 | 0.00 | 0.00 | 1009.7 | |
| 20260504212128 | 71 | 305 | 7.0 | 10.0 | 0.00 | 0.00 | 0.00 | 37 | 1009.6 |
| 20260504211628 | 71 | 279 | 6.0 | 11.0 | 0.00 | 0.00 | 0.00 | 37 | 1009.6 |
| 20260504211127 | 71 | 164 | 5.0 | 11.0 | 0.00 | 0.00 | 0.00 | 38 | 1009.6 |
| 20260504210628 | 71 | 281 | 5.0 | 11.0 | 0.00 | 0.00 | 0.00 | 40 | 1009.6 |
| 20260504210127 | 71 | 248 | 3.0 | 10.0 | 0.00 | 0.00 | 0.00 | 40 | 1009.6 |
| 20260504205628 | 71 | 190 | 5.0 | 13.0 | 0.00 | 0.00 | 0.00 | 38 | 1009.6 |
| 20260504205126 | 71 | 271 | 7.0 | 15.0 | 0.00 | 0.00 | 0.00 | 40 | 1009.6 |
| 20260504204627 | 71 | 193 | 5.0 | 16.0 | 0.00 | 0.00 | 0.00 | 39 | 1009.7 |
| 20260504204129 | 71 | 243 | 6.0 | 16.0 | 0.00 | 0.00 | 0.00 | 41 | 1009.7 |
| 20260504203627 | 71 | 234 | 7.0 | 15.0 | 0.00 | 0.00 | 0.00 | 37 | 1009.8 |
| 20260504203126 | 71 | 189 | 3.0 | 13.0 | 0.00 | 0.00 | 0.00 | 37 | 1009.7 |
| 20260504202626 | 71 | 212 | 6.0 | 11.0 | 0.00 | 0.00 | 0.00 | 40 | 1009.8 |
| 20260504202441 | 71 | 196 | 5.0 | 12.0 | 0.00 | 0.00 | 0.00 | 39 | 1009.8 |
| 20260504201627 | 71 | 200 | 7.0 | 14.0 | 0.00 | 0.00 | 0.00 | 38 | 1010.0 |
| 20260504201127 | 72 | 204 | 4.0 | 14.0 | 0.00 | 0.00 | 0.00 | 37 | 1009.9 |
| 20260504200935 | 72 | 207 | 5.0 | 11.0 | 0.00 | 0.00 | 0.00 | 37 | 1009.9 |
| 20260504200126 | 71 | 241 | 6.0 | 11.0 | 0.00 | 0.00 | 0.00 | 39 | 1010.0 |
| 20260504195626 | 71 | 221 | 4.0 | 6.0 | 0.00 | 0.00 | 0.00 | 39 | 1010.1 |
| 20260504195125 | 71 | 221 | 4.0 | 9.0 | 0.00 | 0.00 | 0.00 | 40 | 1010.1 |
| 20260504194625 | 71 | 199 | 5.0 | 13.0 | 0.00 | 0.00 | 0.00 | 41 | 1010.3 |
| 20260504194126 | 71 | 207 | 7.0 | 13.0 | 0.00 | 0.00 | 0.00 | 42 | 1010.2 |
| 20260504193758 | 71 | 210 | 6.0 | 11.0 | 0.00 | 0.00 | 0.00 | 40 | 1010.3 |
| 20260504193720 | 71 | 221 | 6.0 | 12.0 | 0.00 | 0.00 | 0.00 | 43 | 1010.3 |
| 20260504192625 | 70 | 240 | 5.0 | 11.0 | 0.00 | 0.00 | 0.00 | 41 | 1010.3 |
| 20260504192124 | 71 | 169 | 5.0 | 11.0 | 0.00 | 0.00 | 0.00 | 38 | 1010.4 |
| 20260504191624 | 71 | 226 | 5.0 | 12.0 | 0.00 | 0.00 | 0.00 | 38 | 1010.5 |
| 20260504191124 | 71 | 265 | 5.0 | 12.0 | 0.00 | 0.00 | 0.00 | 37 | 1010.5 |
| 20260504190626 | 71 | 199 | 4.0 | 14.0 | 0.00 | 0.00 | 0.00 | 40 | 1010.5 |
| 20260504190126 | 71 | 212 | 3.0 | 14.0 | 0.00 | 0.00 | 0.00 | 40 | 1010.6 |
| 20260504185623 | 71 | 127 | 6.0 | 12.0 | 0.00 | 0.00 | 0.00 | 42 | 1010.7 |
| 20260504185124 | 70 | 254 | 6.0 | 12.0 | 0.00 | 0.00 | 0.00 | 39 | 1010.7 |
| 20260504184625 | 70 | 188 | 4.0 | 11.0 | 0.00 | 0.00 | 0.00 | 40 | 1010.7 |
| 20260504184125 | 71 | 175 | 6.0 | 12.0 | 0.00 | 0.00 | 0.00 | 43 | 1010.8 |
| 20260504183623 | 70 | 275 | 6.0 | 12.0 | 0.00 | 0.00 | 0.00 | 37 | 1010.8 |
| 20260504183124 | 70 | 234 | 4.0 | 13.0 | 0.00 | 0.00 | 0.00 | 40 | 1010.9 |
| 20260504182950 | 70 | 147 | 5.0 | 13.0 | 0.00 | 0.00 | 0.00 | 39 | 1011.0 |
| 20260504182123 | 70 | 254 | 7.0 | 13.0 | 0.00 | 0.00 | 0.00 | 40 | 1011.1 |
| 20260504181624 | 70 | 172 | 8.0 | 13.0 | 0.00 | 0.00 | 0.00 | 41 | 1011.2 |
| 20260504181123 | 70 | 265 | 4.0 | 12.0 | 0.00 | 0.00 | 0.00 | 40 | 1011.3 |
| 20260504180624 | 70 | 244 | 5.0 | 12.0 | 0.00 | 0.00 | 0.00 | 38 | 1011.4 |
| 20260504180125 | 70 | 147 | 3.0 | 10.0 | 0.00 | 0.00 | 0.00 | 38 | 1011.3 |
| 20260504175944 | 70 | 199 | 5.0 | 11.0 | 0.00 | 0.00 | 0.00 | 36 | 1011.5 |
| 20260504175124 | 70 | 337 | 5.0 | 11.0 | 0.00 | 0.00 | 0.00 | 37 | 1011.6 |
| 20260504174625 | 69 | 296 | 5.0 | 12.0 | 0.00 | 0.00 | 0.00 | 44 | 1011.6 |
| 20260504174440 | 69 | 223 | 4.0 | 18.0 | 0.00 | 0.00 | 0.00 | 38 | 1011.6 |
| 20260504173624 | 69 | 275 | 6.0 | 18.0 | 0.00 | 0.00 | 0.00 | 43 | 1011.7 |
| 20260504173436 | 69 | 231 | 6.0 | 13.0 | 0.00 | 0.00 | 0.00 | 41 | 1011.8 |
| 20260504172624 | 69 | 268 | 5.0 | 11.0 | 0.00 | 0.00 | 0.00 | 48 | 1011.8 |
| 20260504172122 | 69 | 135 | 3.0 | 17.0 | 0.00 | 0.00 | 0.00 | 48 | 1011.8 |
| 20260504171622 | 69 | 114 | 8.0 | 17.0 | 0.00 | 0.00 | 0.00 | 40 | 1011.9 |
| 20260504171121 | 69 | 200 | 6.0 | 16.0 | 0.00 | 0.00 | 0.00 | 38 | 1012.1 |
| 20260504170623 | 69 | 279 | 7.0 | 16.0 | 0.00 | 0.00 | 0.00 | 42 | 1012.2 |
| 20260504170122 | 69 | 169 | 4.0 | 13.0 | 0.00 | 0.00 | 0.00 | 38 | 1012.1 |
| 20260504160122 | 68 | 226 | 7.0 | 12.0 | 0.00 | 0.00 | 0.00 | 37 | 1012.9 |
| 20260504151121 | 0 | 269 | 4.0 | 12.0 | 0.00 | 0.00 | 0.00 | 1013.4 | |
| 20260504150620 | 0 | 281 | 6.0 | 12.0 | 0.00 | 0.00 | 0.00 | 1013.2 | |
| 20260504150426 | 64 | 243 | 6.0 | 11.0 | 0.00 | 0.00 | 0.00 | 47 | 1013.3 |
| 20260504141119 | 62 | 227 | 4.0 | 12.0 | 0.00 | 0.00 | 0.00 | 56 | 1013.4 |
| 20260504140618 | 62 | 259 | 6.0 | 12.0 | 0.00 | 0.00 | 0.00 | 55 | 1013.4 |
| 20260504140119 | 61 | 248 | 4.0 | 9.0 | 0.00 | 0.00 | 0.00 | 56 | 1013.4 |
| 20260504130115 | 57 | 202 | 5.0 | 9.0 | 0.00 | 0.00 | 0.00 | 67 | 1013.9 |
| 20260504120117 | 52 | 200 | 4.0 | 10.0 | 0.00 | 0.00 | 0.00 | 76 | 1014.1 |
| 20260504110612 | 46 | 210 | 4.0 | 6.0 | 0.00 | 0.00 | 0.00 | 81 | 1014.2 |
| 20260504110113 | 46 | 207 | 2.0 | 5.0 | 0.00 | 0.00 | 0.00 | 82 | 1014.3 |
| 20260504100612 | 44 | 196 | 1.0 | 4.0 | 0.00 | 0.00 | 0.00 | 81 | 1014.4 |
| 20260504100418 | 44 | 204 | 2.0 | 4.0 | 0.00 | 0.00 | 0.00 | 81 | 1014.4 |
| 20260504081607 | 46 | 251 | 2.0 | 5.0 | 0.00 | 0.00 | 0.00 | 71 | 1014.3 |
| 20260504081106 | 46 | 241 | 2.0 | 5.0 | 0.00 | 0.00 | 0.00 | 71 | 1014.3 |
| 20260504080604 | 46 | 213 | 2.0 | 5.0 | 0.00 | 0.00 | 0.00 | 70 | 1014.3 |
| 20260504080104 | 47 | 240 | 2.0 | 5.0 | 0.00 | 0.00 | 0.00 | 70 | 1014.3 |
| 20260504045531 | 47 | 282 | 1.0 | 4.0 | 0.00 | 0.00 | 0.00 | 54 | 1014.3 |
| 20260504045033 | 47 | 252 | 2.0 | 4.0 | 0.00 | 0.00 | 0.00 | 55 | 1014.3 |
| 20260504044531 | 47 | 243 | 2.0 | 4.0 | 0.00 | 0.00 | 0.00 | 55 | 1014.3 |
| 20260504044033 | 47 | 248 | 1.0 | 3.0 | 0.00 | 0.00 | 0.00 | 56 | 1014.2 |
| 20260504043529 | 47 | 247 | 1.0 | 3.0 | 0.00 | 0.00 | 0.00 | 54 | 1014.3 |
| 20260504043028 | 48 | 245 | 0.0 | 2.0 | 0.00 | 0.00 | 0.00 | 54 | 1014.2 |
| 20260504042529 | 48 | 254 | 0.0 | 3.0 | 0.00 | 0.00 | 0.00 | 54 | 1014.0 |
| 20260504042028 | 48 | 227 | 1.0 | 5.0 | 0.00 | 0.00 | 0.00 | 54 | 1014.0 |
| 20260504041523 | 48 | 247 | 2.0 | 5.0 | 0.00 | 0.00 | 0.00 | 54 | 1014.0 |
| 20260504041024 | 48 | 240 | 2.0 | 4.0 | 0.00 | 0.00 | 0.00 | 54 | 1014.0 |
| 20260504040506 | 48 | 285 | 1.0 | 3.0 | 0.00 | 0.00 | 0.00 | 54 | 1013.9 |
| 20260504040005 | 48 | 250 | 0.0 | 5.0 | 0.00 | 0.00 | 0.00 | 53 | 1014.0 |
| 20260504035505 | 48 | 251 | 1.0 | 5.0 | 0.00 | 0.00 | 0.00 | 53 | 1013.9 |
| 20260504035005 | 48 | 252 | 1.0 | 3.0 | 0.00 | 0.00 | 0.00 | 53 | 1013.9 |
| 20260504034832 | 48 | 240 | 1.0 | 3.0 | 0.00 | 0.00 | 0.00 | 53 | 1013.7 |
| 20260504034824 | 48 | 235 | 1.0 | 5.0 | 0.00 | 0.00 | 0.00 | 53 | 1013.7 |
| 20260504034710 | 48 | 248 | 1.0 | 3.0 | 0.00 | 0.00 | 0.00 | 53 | 1013.7 |
| 20260504033002 | 48 | 243 | 2.0 | 5.0 | 0.00 | 0.00 | 0.00 | 53 | 1013.7 |
| 20260504032501 | 48 | 244 | 1.0 | 3.0 | 0.00 | 0.00 | 0.00 | 54 | 1013.7 |
| 20260504032003 | 48 | 248 | 1.0 | 3.0 | 0.00 | 0.00 | 0.00 | 53 | 1013.6 |
| 20260504031810 | 48 | 282 | 1.0 | 3.0 | 0.00 | 0.00 | 0.00 | 53 | 1013.6 |
| 20260504031317 | 48 | 250 | 0.0 | 3.0 | 0.00 | 0.00 | 0.00 | 54 | 1013.6 |
| 20260504030502 | 49 | 248 | 1.0 | 3.0 | 0.00 | 0.00 | 0.00 | 53 | 1013.6 |
| 20260504030001 | 49 | 243 | 0.0 | 0.0 | 0.00 | 0.00 | 0.00 | 53 | 1013.6 |
| 20260504025501 | 49 | 243 | 0.0 | 3.0 | 0.00 | 0.00 | 0.00 | 52 | 1013.6 |
| 20260504025001 | 49 | 250 | 0.0 | 3.0 | 0.00 | 0.00 | 0.00 | 52 | 1013.6 |
| 20260504024502 | 49 | 251 | 2.0 | 3.0 | 0.00 | 0.00 | 0.00 | 51 | 1013.6 |
| 20260504024328 | 49 | 274 | 0.0 | 3.0 | 0.00 | 0.00 | 0.00 | 52 | 1013.6 |
| 20260504023502 | 49 | 230 | 2.0 | 3.0 | 0.00 | 0.00 | 0.00 | 52 | 1013.7 |
| 20260504023323 | 49 | 221 | 2.0 | 4.0 | 0.00 | 0.00 | 0.00 | 50 | 1013.7 |
| 20260504022811 | 50 | 272 | 2.0 | 4.0 | 0.00 | 0.00 | 0.00 | 51 | 1013.7 |
| 20260504022001 | 50 | 279 | 1.0 | 3.0 | 0.00 | 0.00 | 0.00 | 51 | 1013.6 |
| 20260504021500 | 50 | 271 | 1.0 | 4.0 | 0.00 | 0.00 | 0.00 | 51 | 1013.7 |
| 20260504021001 | 50 | 230 | 3.0 | 4.0 | 0.00 | 0.00 | 0.00 | 50 | 1013.7 |
| 20260504020459 | 49 | 269 | 0.0 | 0.0 | 0.00 | 0.00 | 0.00 | 51 | 1013.7 |
| 20260504020132 | 49 | 276 | 0.0 | 3.0 | 0.00 | 0.00 | 0.00 | 51 | 1013.6 |
| 20260504020100 | 49 | 269 | 0.0 | 3.0 | 0.00 | 0.00 | 0.00 | 51 | 1013.6 |
| 20260504014957 | 50 | 248 | 1.0 | 3.0 | 0.00 | 0.00 | 0.00 | 50 | 1013.6 |
| 20260504014457 | 50 | 244 | 1.0 | 3.0 | 0.00 | 0.00 | 0.00 | 50 | 1013.5 |
| 20260504013958 | 50 | 282 | 0.0 | 2.0 | 0.00 | 0.00 | 0.00 | 50 | 1013.5 |
| 20260504013458 | 50 | 252 | 0.0 | 2.0 | 0.00 | 0.00 | 0.00 | 50 | 1013.5 |
| 20260504012957 | 50 | 245 | 1.0 | 2.0 | 0.00 | 0.00 | 0.00 | 50 | 1013.5 |
| 20260504012458 | 51 | 250 | 1.0 | 3.0 | 0.00 | 0.00 | 0.00 | 49 | 1013.4 |
| 20260504012141 | 51 | 266 | 1.0 | 4.0 | 0.00 | 0.00 | 0.00 | 47 | 1013.2 |
| 20260504012054 | 51 | 244 | 0.0 | 3.0 | 0.00 | 0.00 | 0.00 | 48 | 1013.3 |
| 20260504011320 | 51 | 224 | 2.0 | 4.0 | 0.00 | 0.00 | 0.00 | 47 | 1013.2 |
| 20260504010457 | 52 | 250 | 2.0 | 5.0 | 0.00 | 0.00 | 0.00 | 47 | 1013.2 |
| 20260504005957 | 52 | 298 | 2.0 | 5.0 | 0.00 | 0.00 | 0.00 | 46 | 1013.0 |
| 20260504005456 | 52 | 271 | 1.0 | 4.0 | 0.00 | 0.00 | 0.00 | 46 | 1013.0 |
| 20260504004956 | 52 | 271 | 1.0 | 4.0 | 0.00 | 0.00 | 0.00 | 45 | 1013.0 |
| 20260504004818 | 53 | 272 | 1.0 | 4.0 | 0.00 | 0.00 | 0.00 | 45 | 1013.0 |